Waarnemingen

Advertentie
Mijn weer
Hemavan A, Zweden (2101): temperatuur & dauwpunt: 16.07.2018 18:00:00 - 22.07.2018 18:00:00 (CEST)Hemavan A, Zweden (2101): windsnelheid: 16.07.2018 18:00:00 - 22.07.2018 18:00:00 (CEST)Hemavan A, Zweden (2101): windrichting: 16.07.2018 18:00:00 - 22.07.2018 18:00:00 (CEST)Hemavan A, Zweden (2101): luchtdruk: 16.07.2018 18:00:00 - 22.07.2018 18:00:00 (CEST)Hemavan A, Zweden (2101): zicht: 16.07.2018 18:00:00 - 22.07.2018 18:00:00 (CEST)
Datum & Tijd tt [°C] td [°C] ff [km/u] ff [kn] dd ppp [hPa] vv [km]
22.07.2018 18:00:00 20,8 10,9 11 6 NW 1003,2 30
22.07.2018 17:00:00 21,4 9,3 11 6 WNW 1003,2 45
22.07.2018 16:00:00 21,4 11,4 7 4 NW 1003,1 45
22.07.2018 15:00:00 21,3 11,9 11 6 WNW 1003,0 50
22.07.2018 14:00:00 20,8 11,4 4 2 WNW 1003,3 45
22.07.2018 13:00:00 19,9 11,1 4 2 NNW 1003,7 40
22.07.2018 12:00:00 19,2 11,5 7 4 W 1004,0 50
22.07.2018 11:00:00 19,2 12,9 4 2 NW 1004,4 35
22.07.2018 10:00:00 17,0 12,3 4 2 NW 1005,1 45
22.07.2018 09:00:00 15,9 12,8 11 6 NW 1005,6 35
22.07.2018 08:00:00 15,9 12,8 11 6 NW 1005,6 35
22.07.2018 07:00:00 15,4 13,2 4 2 NNW 1005,7 25
22.07.2018 06:00:00 14,7 13,6 7 4 NNW 1006,0 20
22.07.2018 05:00:00 12,7 12,5 7 4 N 1006,6 9
22.07.2018 04:00:00 11,6 11,4 0 0 N 1007,1 5
22.07.2018 03:00:00 11,1 10,9 0 0 N 1007,3 0,7
22.07.2018 02:00:00 11,6 11,4 0 0 N 1007,1 0,5
22.07.2018 01:00:00 12,6 12,1 4 2 NNW 1007,1 8
22.07.2018 00:00:00 13,9 13,4 0 0 N 1007,0 8
21.07.2018 23:00:00 14,1 13,6 4 2 O 1006,8 17
21.07.2018 22:00:00 15,4 14,3 4 2 NO 1006,5 30
21.07.2018 21:00:00 15,9 14,6 11 6 NW 1006,2 50
21.07.2018 20:00:00 16,8 14,8 7 4 WNW 1006,5 45
21.07.2018 19:00:00 15,9 14,6 7 4 N 1007,4 2,1
21.07.2018 18:00:00 17,7 13,6 22 12 Z 1006,0 45
21.07.2018 17:00:00 20,1 14,9 4 2 NNW 1004,5 35
21.07.2018 16:00:00 17,3 12,2 14 8 ZW 1005,7 3,6
21.07.2018 15:00:00 25,2 12,1 4 2 N 1003,7 35
21.07.2018 14:00:00 25,3 13,5 4 2 WNW 1003,9 45
21.07.2018 13:00:00 23,8 12,8 4 2 NNW 1005,0 50
21.07.2018 12:00:00 22,6 13,6 4 2 W 1005,8 35
21.07.2018 11:00:00 23,2 13,1 11 6 Z 1006,0 40
21.07.2018 10:00:00 21,7 13,6 4 2 ZZO 1006,8 45
21.07.2018 09:00:00 19,5 12,7 4 2 W 1007,4 29
21.07.2018 08:00:00 17,9 11,7 0 0 N 1007,9 50
21.07.2018 07:00:00 15,3 12,6 4 2 ZZO 1009,0 27
21.07.2018 06:00:00 12,7 12,1 0 0 N 1010,1 45
21.07.2018 05:00:00 10,8 10,3 0 0 N 1010,6 22
21.07.2018 04:00:00 10,6 10,4 4 2 ZO 1010,8 26
21.07.2018 03:00:00 10,3 9,8 0 0 N 1011,1 12
21.07.2018 02:00:00 11,5 11,0 4 2 Z 1011,2 29
21.07.2018 01:00:00 11,8 11,3 0 0 N 1011,6 18
21.07.2018 00:00:00 11,9 11,1 0 0 N 1011,8 35
20.07.2018 23:00:00 12,5 11,6 7 4 ZZO 1011,8 45
20.07.2018 22:00:00 13,9 13,1 4 2 ZO 1011,4 50
20.07.2018 21:00:00 16,1 14,5 4 2 OZO 1011,1 45
20.07.2018 20:00:00 17,3 15,6 4 2 OZO 1011,2 50
20.07.2018 19:00:00 19,9 14,0 7 4 OZO 1010,8 45
20.07.2018 18:00:00 21,8 8,3 4 2 Z 1010,6 50
20.07.2018 17:00:00 24,9 2,3 11 6 Z 1009,9 40
20.07.2018 16:00:00 23,4 8,3 11 6 Z 1010,5 30
20.07.2018 15:00:00 23,0 5,4 11 6 ZZO 1011,5 45
20.07.2018 14:00:00 21,6 12,4 11 6 ZZO 1012,1 50
20.07.2018 13:00:00 19,9 13,6 4 2 ZO 1012,9 40
20.07.2018 12:00:00 18,5 12,5 4 2 ZO 1013,6 45
20.07.2018 11:00:00 17,6 13,1 4 2 ONO 1014,4 30
20.07.2018 10:00:00 15,4 11,8 4 2 W 1015,1 40
20.07.2018 09:00:00 13,6 11,1 4 2 NO 1015,7 40
20.07.2018 08:00:00 12,6 10,7 4 2 NNW 1016,2 45
20.07.2018 07:00:00 11,1 10,6 0 0 N 1016,7 26
20.07.2018 06:00:00 10,1 9,9 0 0 N 1017,0 0,1
20.07.2018 05:00:00 7,9 7,8 0 0 N 1017,9 0,9
20.07.2018 04:00:00 8,0 7,9 0 0 N 1018,1 0,3
20.07.2018 03:00:00 8,4 8,3 0 0 N 1018,4 1,6
20.07.2018 02:00:00 9,6 9,3 0 0 N 1018,4 14
20.07.2018 01:00:00 10,2 9,7 4 2 N 1018,1 22
20.07.2018 00:00:00 12,2 10,6 0 0 N 1018,0 45
19.07.2018 23:00:00 13,1 10,8 7 4 NNW 1017,5 50
19.07.2018 22:00:00 14,4 11,2 7 4 WNW 1017,2 50
19.07.2018 21:00:00 15,7 11,3 11 6 NW 1017,1 40
19.07.2018 20:00:00 16,4 12,2 14 8 NW 1017,0 50
19.07.2018 19:00:00 16,9 11,8 14 8 NW 1017,0 40
19.07.2018 18:00:00 17,2 11,9 14 8 WNW 1016,8 45
19.07.2018 17:00:00 16,8 11,7 14 8 NW 1017,2 50
19.07.2018 16:00:00 16,7 12,0 14 8 WNW 1017,3 35
19.07.2018 15:00:00 17,0 12,7 14 8 WNW 1017,1 50
19.07.2018 14:00:00 17,6 13,3 14 8 NW 1017,1 45
19.07.2018 13:00:00 17,5 13,2 11 6 WNW 1016,7 45
19.07.2018 12:00:00 18,8 14,5 11 6 WNW 1016,1 35
19.07.2018 11:00:00 18,5 14,2 7 4 N 1015,9 30
19.07.2018 10:00:00 18,0 14,3 11 6 NNW 1015,9 29
19.07.2018 09:00:00 18,7 14,8 7 4 NNW 1015,4 28
19.07.2018 08:00:00 18,2 14,3 4 2 OZO 1015,2 40
19.07.2018 07:00:00 17,7 14,4 4 2 ZZO 1015,2 30
19.07.2018 06:00:00 17,1 14,6 7 4 N 1015,5 35
19.07.2018 05:00:00 14,7 13,7 0 0 N 1016,4 30
19.07.2018 04:00:00 14,1 13,1 7 4 N 1016,6 25
19.07.2018 03:00:00 14,8 13,0 0 0 N 1016,2 30
19.07.2018 02:00:00 14,8 13,3 7 4 N 1015,2 45
19.07.2018 01:00:00 15,3 13,0 7 4 ZW 1016,1 45
19.07.2018 00:00:00 13,8 13,0 4 2 ZZW 1015,5 45
18.07.2018 23:00:00 16,1 13,6 4 2 ZZO 1014,9 45
18.07.2018 22:00:00 19,3 13,0 11 6 NW 1015,1 50
18.07.2018 21:00:00 19,3 15,2 7 4 O 1013,6 45
18.07.2018 20:00:00 20,7 14,8 11 6 O 1013,3 45
18.07.2018 19:00:00 22,6 14,7 7 4 N 1013,5 40
18.07.2018 18:00:00 21,7 14,6 7 4 ZZO 1014,2 50
18.07.2018 17:00:00 19,8 14,2 7 4 W 1015,2 50
18.07.2018 16:00:00 24,0 13,5 22 12 ZO 1013,7 35
18.07.2018 15:00:00 27,5 10,7 22 12 ZZO 1013,0 50
18.07.2018 14:00:00 26,4 10,1 18 10 Z 1013,9 35
18.07.2018 13:00:00 28,0 11,1 18 10 Z 1013,8 35
18.07.2018 12:00:00 26,3 10,4 25 14 ZZO 1014,7 40
18.07.2018 11:00:00 25,7 11,8 22 12 ZO 1015,0 50
18.07.2018 10:00:00 24,7 13,9 18 10 ZZO 1015,4 35
18.07.2018 09:00:00 23,3 13,8 18 10 ZZO 1015,8 30
18.07.2018 08:00:00 20,5 15,1 0 0 N 1016,7 35
18.07.2018 07:00:00 17,1 14,0 4 2 WNW 1017,3 35
18.07.2018 06:00:00 13,9 13,4 0 0 N 1018,0 22
18.07.2018 05:00:00 12,7 12,5 0 0 N 1018,3 27
18.07.2018 04:00:00 11,1 10,9 0 0 N 1018,7 1,8
18.07.2018 03:00:00 11,9 11,4 4 2 O 1018,7 24
18.07.2018 02:00:00 12,8 12,2 4 2 ZO 1018,2 24
18.07.2018 01:00:00 14,6 13,6 0 0 N 1017,7 35
18.07.2018 00:00:00 15,0 14,2 0 0 N 1017,6 35
17.07.2018 23:00:00 17,2 15,5 0 0 N 1016,7 45
17.07.2018 22:00:00 19,9 17,1 4 2 ZW 1016,1 45
17.07.2018 21:00:00 21,2 16,6 4 2 W 1015,6 50
17.07.2018 20:00:00 21,7 13,6 0 0 N 1015,6 45
17.07.2018 19:00:00 24,3 14,4 7 4 ZZO 1015,1 35
17.07.2018 18:00:00 28,8 11,4 4 2 ZZW 1014,2 45
17.07.2018 17:00:00 27,6 11,6 11 6 ZO 1014,6 30
17.07.2018 16:00:00 28,1 13,6 7 4 ZZO 1014,7 23
17.07.2018 15:00:00 26,1 14,2 7 4 ZZO 1015,5 30
17.07.2018 14:00:00 26,2 12,6 14 8 ZO 1015,6 19
17.07.2018 13:00:00 27,3 10,9 18 10 ZZO 1015,4 21
17.07.2018 12:00:00 27,3 12,9 18 10 ZZO 1015,4 24
17.07.2018 11:00:00 26,1 13,6 18 10 ZZO 1015,7 35
17.07.2018 10:00:00 24,5 14,9 11 6 ZO 1016,0 24
17.07.2018 09:00:00 22,4 14,5 4 2 ZO 1016,6 35
17.07.2018 08:00:00 19,2 15,1 4 2 NW 1017,3 45
17.07.2018 07:00:00 16,4 13,9 0 0 N 1017,8 30
17.07.2018 06:00:00 13,4 12,9 0 0 N 1018,5 24
17.07.2018 05:00:00 10,3 10,1 0 0 N 1019,1 30
17.07.2018 04:00:00 10,0 9,8 0 0 N 1018,8 15
17.07.2018 03:00:00 10,6 10,1 0 0 N 1018,7 12
17.07.2018 02:00:00 11,9 11,4 0 0 N 1018,1 12
17.07.2018 01:00:00 12,7 12,1 4 2 NNW 1017,7 40
17.07.2018 00:00:00 15,2 13,6 4 2 N 1016,9 45
16.07.2018 23:00:00 16,2 14,3 4 2 ZO 1016,2 50
16.07.2018 22:00:00 19,3 15,4 4 2 ZO 1015,1 50
16.07.2018 21:00:00 23,3 14,3 7 4 ZO 1014,1 45
16.07.2018 20:00:00 23,9 13,7 7 4 ZO 1014,0 50
16.07.2018 19:00:00 25,0 12,9 11 6 ZO 1013,7 45
16.07.2018 18:00:00 24,6 13,5 7 4 Z 1013,6 35

tt = temperatuur
td = dauwpunt
ff = windsnelheid
dd = windrichting
ppp = luchtdruk
vv = zicht

Weerstations in de omgeving